DW4669 Weather Reports


Display with metric or nautical units.
time (UTC)temp
F
wind
direction
speed
MPH
gust
MPH
rain 1hr
in
rain 24hr
in
rain mn
in
humidity
%
barometer
mb
20260509185513 55 0 0.0 5.0 0.05 0.11 0.11 92 1010.8
20260509185015 54 0 0.0 5.0 0.04 0.10 0.10 91 1010.8
20260509184533 55 0 0.0 3.0 0.05 0.10 0.10 91 1011.0
20260509184011 55 289 0.0 7.0 0.04 0.09 0.09 92 1011.1
20260509183510 55 281 0.0 7.0 0.03 0.08 0.08 91 1011.3
20260509183030 55 303 1.0 5.0 0.03 0.08 0.08 92 1011.4
20260509182512 55 0 0.0 6.0 0.02 0.07 0.07 92 1011.2
20260509182012 55 275 0.0 6.0 0.02 0.07 0.07 92 1011.2
20260509181527 55 0 0.0 6.0 0.01 0.06 0.06 92 1011.1
20260509181012 55 0 0.0 6.0 0.01 0.06 0.06 93 1011.0
20260509180512 55 306 0.0 4.0 0.01 0.06 0.06 93 1010.9
20260509180028 55 321 0.0 5.0 0.01 0.06 0.06 93 1010.9
20260509175512 55 0 0.0 5.0 0.01 0.06 0.06 93 1011.0
20260509175011 55 242 0.0 5.0 0.01 0.06 0.06 93 1010.8
20260509174528 55 13 1.0 5.0 0.00 0.05 0.05 93 1010.8
20260509174011 55 0 0.0 3.0 0.00 0.05 0.05 94 1010.8
20260509173511 55 296 1.0 4.0 0.00 0.05 0.05 94 1010.8
20260509173028 55 323 0.0 5.0 0.00 0.05 0.05 94 1010.7
20260509172511 55 326 1.0 5.0 0.00 0.05 0.05 94 1010.7
20260509172014 55 0 0.0 3.0 0.00 0.05 0.05 94 1010.7
20260509171530 55 0 0.0 1.0 0.00 0.05 0.05 93 1010.5
20260509171019 55 0 0.0 2.0 0.01 0.05 0.05 93 1010.5
20260509170509 54 0 0.0 3.0 0.01 0.05 0.05 94 1010.5
20260509170039 55 0 0.0 3.0 0.01 0.05 0.05 94 1010.5
20260509165512 54 0 0.0 3.0 0.01 0.05 0.05 94 1010.5
20260509165016 54 0 0.0 3.0 0.01 0.05 0.05 94 1010.6
20260509164536 54 0 0.0 3.0 0.01 0.05 0.05 94 1010.6
20260509164013 54 0 0.0 3.0 0.01 0.05 0.05 94 1010.7
20260509163512 54 0 0.0 3.0 0.01 0.05 0.05 94 1010.8
20260509163030 54 0 0.0 3.0 0.01 0.05 0.05 94 1010.9
20260509162511 54 0 0.0 3.0 0.01 0.05 0.05 94 1010.9
20260509162018 54 315 0.0 3.0 0.02 0.05 0.05 94 1010.9
20260509161533 53 0 0.0 3.0 0.02 0.05 0.05 94 1011.1
20260509161011 53 0 0.0 1.0 0.01 0.04 0.04 94 1011.0
20260509160510 53 0 0.0 0.0 0.01 0.04 0.04 94 1011.0
20260509160033 53 0 0.0 2.0 0.01 0.04 0.04 94 1011.2
20260509155513 52 0 0.0 2.0 0.01 0.04 0.04 94 1011.2
20260509155014 52 0 0.0 1.0 0.01 0.04 0.04 94 1011.4
20260509154531 52 0 0.0 1.0 0.01 0.04 0.04 94 1011.3
20260509154011 52 0 0.0 3.0 0.01 0.04 0.04 94 1011.4
20260509153514 52 0 0.0 3.0 0.01 0.04 0.04 94 1011.5
20260509153038 52 0 0.0 3.0 0.01 0.04 0.04 94 1011.6
20260509152511 52 315 0.0 3.0 0.01 0.04 0.04 94 1011.7
20260509152011 52 0 0.0 3.0 0.00 0.03 0.03 94 1011.8
20260509151530 52 0 0.0 4.0 0.00 0.03 0.03 93 1011.7
20260509151010 52 0 0.0 4.0 0.00 0.03 0.03 93 1011.6
20260509150509 51 0 0.0 3.0 0.00 0.03 0.03 93 1011.7
20260509150030 51 315 0.0 3.0 0.00 0.03 0.03 93 1011.6
20260509145510 51 315 0.0 2.0 0.00 0.03 0.03 93 1011.5
20260509145011 52 0 0.0 4.0 0.00 0.03 0.03 93 1011.4
20260509144533 51 0 1.0 4.0 0.00 0.03 0.03 93 1011.4
20260509144010 51 323 1.0 4.0 0.00 0.03 0.03 94 1011.4
20260509143512 51 333 0.0 5.0 0.00 0.03 0.03 94 1011.2
20260509143030 51 321 1.0 5.0 0.00 0.03 0.03 94 1011.2
20260509142512 51 332 2.0 5.0 0.00 0.03 0.03 93 1011.4
20260509142010 51 0 2.0 4.0 0.00 0.03 0.03 93 1011.2
20260509141531 51 321 1.0 3.0 0.00 0.03 0.03 94 1011.3
20260509141015 51 322 1.0 3.0 0.00 0.03 0.03 94 1011.4
20260509140509 51 0 1.0 3.0 0.00 0.03 0.03 94 1011.3
20260509140028 51 0 0.0 3.0 0.00 0.03 0.03 95 1011.4
20260509135515 51 0 0.0 1.0 0.00 0.03 0.03 95 1011.3
20260509135013 51 0 0.0 2.0 0.00 0.03 0.03 94 1011.3
20260509134530 51 0 0.0 3.0 0.00 0.03 0.03 94 1011.5
20260509134013 51 0 0.0 3.0 0.00 0.03 0.03 94 1011.5
20260509133509 50 0 0.0 4.0 0.00 0.03 0.03 94 1011.4
20260509133028 50 316 0.0 4.0 0.00 0.03 0.03 94 1011.5
20260509132512 50 315 0.0 3.0 0.00 0.03 0.03 94 1011.6
20260509132014 50 0 0.0 2.0 0.00 0.03 0.03 94 1011.7
20260509131533 50 0 0.0 2.0 0.00 0.03 0.03 94 1011.7
20260509131013 50 0 0.0 2.0 0.00 0.03 0.03 94 1011.6
20260509130512 50 0 0.0 2.0 0.00 0.03 0.03 94 1011.6
20260509130027 50 0 0.0 2.0 0.00 0.03 0.03 94 1011.9
20260509125513 50 0 0.0 2.0 0.00 0.03 0.03 94 1011.8
20260509125012 50 0 0.0 0.0 0.00 0.03 0.03 94 1012.0
20260509124528 50 0 0.0 0.0 0.00 0.03 0.03 95 1012.0
20260509124015 50 0 0.0 0.0 0.00 0.03 0.03 95 1012.0
20260509123511 49 0 0.0 0.0 0.00 0.03 0.03 95 1011.9
20260509123030 49 0 0.0 0.0 0.01 0.03 0.03 95 1011.7
20260509122511 49 0 0.0 1.0 0.01 0.03 0.03 95 1011.6
20260509122012 49 0 0.0 1.0 0.01 0.03 0.03 95 1011.4
20260509121531 49 0 0.0 1.0 0.01 0.03 0.03 96 1011.3
20260509121010 48 0 0.0 1.0 0.01 0.03 0.03 96 1011.3
20260509120513 48 0 0.0 1.0 0.01 0.03 0.03 96 1011.4
20260509120036 48 0 0.0 1.0 0.01 0.03 0.03 96 1011.5
20260509115511 47 0 0.0 1.0 0.01 0.03 0.03 95 1011.5
20260509115012 47 0 0.0 0.0 0.01 0.03 0.03 95 1011.6
20260509114529 47 0 0.0 0.0 0.01 0.03 0.03 95 1011.9
20260509114013 47 0 0.0 0.0 0.01 0.03 0.03 95 1012.0
20260509113511 47 0 0.0 1.0 0.01 0.03 0.03 95 1012.1
20260509113031 47 0 0.0 1.0 0.00 0.02 0.02 95 1012.0
20260509112512 47 0 0.0 1.0 0.00 0.02 0.02 95 1011.9
20260509112011 47 0 0.0 2.0 0.00 0.02 0.02 95 1012.1
20260509111528 47 0 0.0 2.0 0.00 0.02 0.02 95 1012.1
20260509111013 47 287 0.0 2.0 0.00 0.02 0.02 95 1012.1
20260509110512 47 0 0.0 2.0 0.00 0.02 0.02 95 1012.0
20260509110028 47 287 0.0 2.0 0.00 0.02 0.02 95 1012.0
20260509105513 47 286 0.0 1.0 0.00 0.03 0.02 95 1011.9
20260509105011 47 0 0.0 0.0 0.00 0.03 0.02 95 1011.7
20260509104530 47 0 0.0 0.0 0.00 0.03 0.02 95 1011.7
20260509104010 47 0 0.0 0.0 0.00 0.03 0.02 95 1011.8
20260509103513 47 0 0.0 0.0 0.00 0.03 0.02 95 1011.7
20260509103027 47 0 0.0 0.0 0.00 0.03 0.02 95 1011.7
20260509102512 47 0 0.0 0.0 0.00 0.03 0.02 95 1011.6
20260509102012 47 0 0.0 0.0 0.00 0.03 0.02 95 1011.7
20260509101539 47 0 0.0 0.0 0.00 0.03 0.02 95 1011.6
20260509101017 47 0 0.0 0.0 0.00 0.03 0.02 95 1011.6
20260509100516 47 0 0.0 0.0 0.00 0.03 0.02 95 1011.6
20260509100029 47 0 0.0 0.0 0.00 0.03 0.02 95 1011.8
20260509095513 47 0 0.0 0.0 0.00 0.03 0.02 94 1011.8
20260509095013 47 0 0.0 0.0 0.00 0.03 0.02 94 1011.8
20260509094530 47 0 0.0 0.0 0.00 0.03 0.02 94 1011.9
20260509094012 47 0 0.0 0.0 0.00 0.03 0.02 94 1012.0
20260509093516 47 0 0.0 0.0 0.00 0.03 0.02 94 1012.0
20260509093030 47 0 0.0 0.0 0.00 0.03 0.02 94 1011.8
20260509092512 47 0 0.0 0.0 0.00 0.03 0.02 94 1011.7
20260509092010 47 0 0.0 0.0 0.00 0.03 0.02 94 1011.8
20260509091533 47 0 0.0 0.0 0.00 0.03 0.02 94 1011.8
20260509091012 47 0 0.0 0.0 0.00 0.03 0.02 94 1011.9
20260509090510 47 0 0.0 0.0 0.00 0.03 0.02 94 1012.0
20260509090030 47 0 0.0 0.0 0.00 0.03 0.02 94 1011.9
20260509085515 47 0 0.0 0.0 0.00 0.03 0.02 94 1012.1
20260509085012 47 0 0.0 0.0 0.00 0.03 0.02 94 1012.0
20260509084533 47 0 0.0 0.0 0.00 0.03 0.02 94 1012.0
20260509084014 47 0 0.0 0.0 0.00 0.03 0.02 94 1012.1
20260509083511 47 0 0.0 0.0 0.00 0.03 0.02 94 1012.2
20260509083027 47 0 0.0 0.0 0.00 0.03 0.02 94 1012.0
20260509082511 47 0 0.0 0.0 0.00 0.03 0.02 94 1011.9
20260509082012 47 0 0.0 0.0 0.00 0.03 0.02 94 1011.9
20260509081528 47 0 0.0 0.0 0.00 0.03 0.02 94 1012.0
20260509081010 47 0 0.0 0.0 0.01 0.03 0.02 93 1011.8
20260509080513 48 0 0.0 0.0 0.01 0.03 0.02 93 1011.9
20260509080036 48 0 0.0 0.0 0.01 0.03 0.02 93 1011.8
20260509075512 48 0 0.0 0.0 0.01 0.04 0.02 93 1011.7
20260509075012 48 0 0.0 0.0 0.01 0.04 0.02 93 1011.7
20260509074529 48 0 0.0 0.0 0.02 0.04 0.02 93 1011.9
20260509074013 48 0 0.0 0.0 0.02 0.04 0.02 93 1011.9
20260509073516 48 0 0.0 0.0 0.02 0.04 0.02 93 1011.7
20260509073045 48 0 0.0 1.0 0.02 0.04 0.02 93 1011.6
20260509072516 48 0 0.0 1.0 0.02 0.04 0.02 93 1011.6
20260509072014 48 0 0.0 0.0 0.02 0.04 0.02 93 1011.6
20260509071535 48 0 0.0 0.0 0.02 0.04 0.02 92 1011.4
20260509071011 48 0 0.0 0.0 0.01 0.03 0.01 92 1011.7
20260509070512 48 0 0.0 0.0 0.01 0.03 0.01 92 1011.5
20260509070029 48 0 0.0 0.0 0.01 0.03 0.01 92 1011.4
20260509065512 48 0 0.0 0.0 0.01 0.03 0.01 92 1011.5
20260509065011 48 0 0.0 0.0 0.01 0.03 0.01 92 1011.7
20260509064528 48 0 0.0 0.0 0.00 0.02 0.00 92 1011.8
20260509064015 48 0 0.0 0.0 0.00 0.02 0.00 91 1012.0
20260509063509 48 0 0.0 0.0 0.00 0.02 0.00 91 1012.1
20260509063031 48 0 0.0 0.0 0.00 0.02 0.00 91 1012.0
20260509062512 48 0 0.0 0.0 0.00 0.02 0.00 91 1012.2
20260509062011 48 0 0.0 0.0 0.00 0.02 0.00 91 1012.2
20260509061529 48 0 0.0 0.0 0.00 0.02 0.00 91 1012.2
20260509061012 48 0 0.0 0.0 0.00 0.02 0.00 90 1012.1
20260509060513 48 0 0.0 0.0 0.00 0.02 0.00 90 1012.0
20260509060037 47 0 0.0 0.0 0.00 0.02 0.00 89 1012.1
20260509055512 47 0 0.0 0.0 0.00 0.09 0.00 89 1012.1
20260509055015 48 0 0.0 1.0 0.00 0.09 0.00 89 1012.0
20260509054528 48 0 0.0 1.0 0.00 0.09 0.00 89 1012.0
20260509054012 48 0 0.0 1.0 0.00 0.09 0.00 89 1012.0
20260509053510 48 0 0.0 0.0 0.00 0.09 0.00 89 1011.9
20260509053032 48 0 0.0 0.0 0.00 0.09 0.00 89 1011.9
20260509052511 48 0 0.0 0.0 0.00 0.09 0.00 89 1011.9
20260509052010 48 0 0.0 0.0 0.00 0.09 0.00 89 1012.0
20260509051529 48 0 0.0 0.0 0.00 0.09 0.00 89 1012.2
20260509051013 48 0 0.0 0.0 0.00 0.09 0.00 89 1012.1
20260509050513 48 0 0.0 0.0 0.00 0.09 0.00 89 1012.1
20260509050030 48 0 0.0 0.0 0.00 0.09 0.00 89 1012.1
20260509045511 48 0 0.0 0.0 0.00 0.09 0.00 88 1012.2
20260509045010 48 0 0.0 0.0 0.00 0.09 0.00 88 1012.2
20260509044535 48 0 0.0 0.0 0.00 0.09 0.00 88 1012.2
20260509044012 48 0 0.0 0.0 0.00 0.09 0.00 88 1012.2
20260509043512 48 0 0.0 0.0 0.00 0.09 0.00 88 1012.3
20260509043036 48 0 0.0 0.0 0.00 0.09 0.00 88 1012.4
20260509042514 48 0 0.0 0.0 0.00 0.09 0.00 87 1012.4
20260509042013 48 0 0.0 0.0 0.00 0.09 0.00 87 1012.4
20260509041528 48 0 0.0 0.0 0.00 0.09 0.00 87 1012.4
20260509041011 48 0 0.0 0.0 0.00 0.09 0.00 87 1012.4
20260509040511 48 0 0.0 0.0 0.00 0.09 0.00 86 1012.3
20260509040027 49 0 0.0 0.0 0.00 0.09 0.00 87 1012.4
20260509035512 49 0 0.0 0.0 0.00 0.09 0.09 86 1012.4
20260509035011 49 0 0.0 0.0 0.00 0.09 0.09 86 1012.4
20260509034540 49 0 0.0 0.0 0.00 0.09 0.09 86 1012.5
20260509034017 49 0 0.0 0.0 0.00 0.09 0.09 86 1012.4
20260509033511 49 0 0.0 0.0 0.00 0.09 0.09 85 1012.4
20260509033028 49 0 0.0 0.0 0.00 0.09 0.09 85 1012.4
20260509032513 50 0 0.0 0.0 0.00 0.09 0.09 85 1012.4
20260509032014 50 0 0.0 0.0 0.00 0.09 0.09 85 1012.4
20260509031531 50 0 0.0 0.0 0.00 0.09 0.09 85 1012.3
20260509031010 50 0 0.0 0.0 0.00 0.09 0.09 85 1012.4
20260509030511 50 0 0.0 0.0 0.00 0.09 0.09 85 1012.3
20260509030030 50 0 0.0 0.0 0.00 0.09 0.09 85 1012.3
20260509025510 50 0 0.0 0.0 0.00 0.09 0.09 85 1012.3
20260509025013 50 0 0.0 0.0 0.00 0.09 0.09 84 1012.3
20260509024529 50 0 0.0 0.0 0.00 0.09 0.09 84 1012.2
20260509024013 50 0 0.0 0.0 0.00 0.09 0.09 84 1012.1
20260509023511 50 0 0.0 0.0 0.00 0.09 0.09 83 1012.2
20260509023027 50 0 0.0 0.0 0.00 0.09 0.09 83 1012.1
20260509022511 50 0 0.0 0.0 0.00 0.09 0.09 83 1012.0
20260509022010 50 0 0.0 0.0 0.00 0.09 0.09 83 1012.1
20260509021533 50 0 0.0 0.0 0.00 0.09 0.09 83 1012.2
20260509021011 50 0 0.0 0.0 0.00 0.09 0.09 83 1012.1
20260509020511 50 0 0.0 0.0 0.00 0.09 0.09 83 1012.0
20260509020028 50 0 0.0 0.0 0.00 0.09 0.09 83 1011.9
20260509015512 50 0 0.0 0.0 0.00 0.09 0.09 82 1012.0
20260509015011 50 0 0.0 0.0 0.00 0.09 0.09 82 1011.9
20260509014528 50 0 0.0 0.0 0.00 0.09 0.09 82 1011.8
20260509014011 50 0 0.0 0.0 0.00 0.09 0.09 81 1011.8
20260509013514 50 0 0.0 0.0 0.00 0.09 0.09 81 1011.7
20260509013032 50 0 0.0 0.0 0.00 0.09 0.09 82 1011.5
20260509012512 50 0 0.0 0.0 0.00 0.09 0.09 80 1011.6
20260509012013 50 0 0.0 0.0 0.00 0.09 0.09 80 1011.6
20260509011530 50 0 0.0 0.0 0.00 0.09 0.09 80 1011.5
20260509011013 50 0 0.0 0.0 0.00 0.09 0.09 81 1011.5
20260509010511 50 0 0.0 0.0 0.00 0.09 0.09 81 1011.6
20260509010036 50 0 0.0 0.0 0.00 0.09 0.09 80 1011.6
20260509005511 50 0 0.0 0.0 0.00 0.09 0.09 79 1011.5
20260509005010 50 0 0.0 0.0 0.00 0.09 0.09 78 1011.3
20260509004539 50 0 0.0 0.0 0.00 0.09 0.09 78 1011.2
20260509004011 50 0 0.0 0.0 0.00 0.09 0.09 78 1011.2
20260509003514 50 0 0.0 0.0 0.00 0.09 0.09 78 1011.2
20260509003029 50 0 0.0 0.0 0.00 0.09 0.09 77 1011.1
20260509002512 50 0 0.0 0.0 0.00 0.09 0.09 77 1011.1
20260509002012 50 0 0.0 0.0 0.00 0.09 0.09 77 1011.0
20260509001531 51 0 0.0 0.0 0.00 0.09 0.09 76 1011.0
20260509001012 51 0 0.0 0.0 0.00 0.09 0.09 75 1011.0
20260509000512 52 0 0.0 0.0 0.00 0.09 0.09 74 1010.9
20260509000030 52 0 0.0 0.0 0.00 0.09 0.09 72 1010.8
20260508235513 53 0 0.0 0.0 0.00 0.09 0.09 72 1010.9
20260508235011 54 0 0.0 0.0 0.00 0.09 0.09 71 1010.9
20260508234528 54 0 0.0 0.0 0.00 0.09 0.09 68 1010.7
20260508234012 55 0 0.0 1.0 0.00 0.09 0.09 68 1010.7
20260508233512 55 0 0.0 1.0 0.00 0.09 0.09 62 1010.6
20260508233028 56 0 0.0 1.0 0.00 0.09 0.09 63 1010.6
20260508232510 56 0 0.0 2.0 0.00 0.09 0.09 61 1010.7
20260508232012 56 0 0.0 2.0 0.00 0.09 0.09 62 1010.8
20260508231531 56 0 0.0 2.0 0.00 0.09 0.09 60 1010.9
20260508231010 56 0 0.0 2.0 0.00 0.09 0.09 59 1010.8
20260508230512 56 0 0.0 3.0 0.00 0.09 0.09 59 1010.8
20260508230028 56 0 0.0 3.0 0.00 0.09 0.09 59 1010.8
20260508225515 57 0 0.0 7.0 0.00 0.09 0.09 59 1010.7
20260508225014 57 299 0.0 7.0 0.00 0.09 0.09 59 1010.7
20260508224530 57 334 0.0 4.0 0.00 0.09 0.09 58 1010.6
20260508224012 57 0 0.0 4.0 0.00 0.09 0.09 57 1010.5
20260508223512 57 0 0.0 4.0 0.00 0.09 0.09 59 1010.5
20260508223040 57 296 0.0 7.0 0.00 0.09 0.09 57 1010.5
20260508222511 58 0 1.0 7.0 0.00 0.09 0.09 56 1010.5
20260508222011 58 319 0.0 6.0 0.00 0.09 0.09 57 1010.5
20260508221530 58 0 2.0 8.0 0.00 0.09 0.09 57 1010.5
20260508221013 58 313 2.0 8.0 0.00 0.09 0.09 55 1010.4
20260508220511 59 272 0.0 5.0 0.00 0.09 0.09 56 1010.4
20260508220032 59 0 0.0 5.0 0.00 0.09 0.09 54 1010.4
20260508215511 59 296 1.0 7.0 0.00 0.09 0.09 55 1010.4
20260508215013 59 246 2.0 8.0 0.00 0.09 0.09 57 1010.3
20260508214538 58 0 1.0 9.0 0.00 0.09 0.09 55 1010.4
20260508214012 58 306 2.0 9.0 0.00 0.09 0.09 56 1010.4
20260508213510 58 316 1.0 6.0 0.00 0.09 0.09 60 1010.4
20260508213033 58 315 2.0 7.0 0.00 0.09 0.09 56 1010.4
20260508212511 58 288 1.0 10.0 0.00 0.09 0.09 56 1010.5
20260508212018 58 321 2.0 11.0 0.00 0.09 0.09 55 1010.4
20260508211532 58 265 2.0 11.0 0.00 0.09 0.09 56 1010.5
20260508211012 58 320 5.0 11.0 0.00 0.09 0.09 54 1010.5
20260508210513 59 342 2.0 7.0 0.00 0.09 0.09 59 1010.4
20260508210030 58 205 1.0 9.0 0.00 0.09 0.09 58 1010.5
20260508205513 58 0 0.0 9.0 0.00 0.09 0.09 58 1010.5
20260508205010 59 352 2.0 9.0 0.00 0.09 0.09 57 1010.6
20260508204533 59 257 2.0 8.0 0.00 0.09 0.09 56 1010.6
20260508204013 59 265 1.0 9.0 0.00 0.09 0.09 54 1010.6
20260508203510 59 252 3.0 10.0 0.00 0.09 0.09 55 1010.5
20260508203031 59 0 3.0 10.0 0.00 0.09 0.09 60 1010.6
20260508202511 58 269 2.0 9.0 0.00 0.09 0.09 58 1010.6
20260508202013 59 301 3.0 16.0 0.00 0.09 0.09 57 1010.5
20260508201529 60 307 4.0 16.0 0.00 0.09 0.09 56 1010.4
20260508201013 60 321 3.0 11.0 0.00 0.09 0.09 63 1010.4
20260508200511 59 146 1.0 10.0 0.00 0.09 0.09 64 1010.4
20260508200028 59 336 4.0 11.0 0.00 0.09 0.09 61 1010.6
20260508195510 58 272 3.0 12.0 0.00 0.09 0.09 63 1010.6
20260508195015 58 272 5.0 12.0 0.00 0.09 0.09 62 1010.7
20260508194531 58 325 3.0 10.0 0.00 0.09 0.09 65 1010.7
20260508194011 57 306 3.0 11.0 0.00 0.09 0.09 65 1010.7
20260508193512 56 323 2.0 11.0 0.00 0.09 0.09 67 1010.9
20260508193028 56 315 2.0 10.0 0.00 0.09 0.09 67 1011.0
20260508192514 56 241 1.0 10.0 0.00 0.09 0.09 71 1010.9
20260508192015 55 0 3.0 10.0 0.00 0.09 0.09 70 1010.9
20260508191531 54 300 2.0 9.0 0.00 0.09 0.09 73 1011.0
20260508191011 53 248 1.0 9.0 0.00 0.09 0.09 76 1011.0
20260508190513 52 292 3.0 9.0 0.00 0.09 0.09 74 1011.2
20260508190031 51 0 2.0 10.0 0.00 0.09 0.09 71 1011.3